Weather History for Idaho Cnty AP, Grangeville, I, ID

Change the Weather History Date:

Sunday, June 30, 2013

  Actual Average (KLWS) Record (KLWS)
Temperature  
Mean Temperature 72 °F 70 °F  
Max Temperature 86 °F 84 °F 108 °F (1924)
Min Temperature 57 °F 56 °F 40 °F (1949)
Degree Days  
Heating Degree Days 0 1  
Month to date heating degree days 70  
Since 1 June heating degree days 70  
Since 1 July heating degree days 5167  
Cooling Degree Days 6 6  
Month to date cooling degree days 98  
Year to date cooling degree days 130  
Since 1 June cooling degree days 98  
Growing Degree Days 22 (Base 50)    
Moisture  
Dew Point 58 °F    
Average Humidity 61    
Maximum Humidity 86    
Minimum Humidity 35    
Precipitation  
Precipitation 0.00 in 0.03 in 0.78 in (1885)
Month to date precipitation 1.24  
Year to date precipitation 7.18  
Snow  
Snow 0.00 in 0.00 in 0.00 in (1995)
Month to date snowfall 0.0  
Since 1 June snowfall 0.0  
Since 1 July snowfall 10.5  
Snow Depth -    
Sea Level Pressure  
Sea Level Pressure 30.13 in    
Wind  
Wind Speed 3 mph (ENE)    
Max Wind Speed 6 mph    
Max Gust Speed -    
Visibility 10 miles    
Events      
T = Trace of Precipitation, MM = Missing Value Source: NWS Daily Summary

Daily Weather History Graph

Daily Weather History Graph

Search for Another Location

Airport:

Trip Planner

Search our weather history database for the weather conditions in past years. The results will help you decide how hot, cold, wet, or windy it might be!

Date:

Astronomy

Jun. 30, 2013 Rise Set
Actual Time 4:57 AM PDT 8:38 PM PDT
Civil Twilight 4:19 AM PDT 9:16 PM PDT
Nautical Twilight 3:27 AM PDT 10:08 PM PDT
Astronomical Twilight 2:17 AM PDT 11:18 PM PDT
Moon 12:14 AM PDT (6/30) 1:44 PM PDT (6/30)
Length of Visible Light 16h 57m
Length of Day
15h 41m
Last Quarter, 44% of the Moon is Illuminated
Jun 30
Last Quarter
Jul 8
New
Jul 15
First Quarter
Jul 22
Full
Jul 29
Last Quarter

Hourly Weather History & Observations

Time (PDT) Temp. Heat Index Dew Point Humidity Pressure Visibility Wind Dir Wind Speed Gust Speed Precip Events Conditions
12:15 AM 64.9 °F - 59.9 °F 84% 30.12 in 10.0 mi East 4.6 mph - N/A   Clear
12:35 AM 63.7 °F - 59.2 °F 85% 30.12 in 10.0 mi South 3.5 mph - N/A   Clear
12:55 AM 63.1 °F - 59.0 °F 86% 30.12 in 10.0 mi Calm Calm - N/A   Clear
1:15 AM 62.6 °F - 58.5 °F 86% 30.12 in 10.0 mi Calm Calm - N/A   Clear
1:35 AM 63.3 °F - 57.9 °F 83% 30.12 in 10.0 mi SSW 4.6 mph - N/A   Clear
1:55 AM 63.9 °F - 57.9 °F 81% 30.12 in 10.0 mi SSW 4.6 mph - N/A   Clear
2:15 AM 64.6 °F - 57.7 °F 78% 30.12 in 10.0 mi Calm Calm - N/A   Clear
2:35 AM 64.2 °F - 57.2 °F 78% 30.12 in 10.0 mi SSW 3.5 mph - N/A   Clear
2:55 AM 61.7 °F - 56.3 °F 82% 30.13 in 10.0 mi SSW 3.5 mph - N/A   Clear
3:15 AM 61.9 °F - 55.9 °F 81% 30.13 in 10.0 mi Calm Calm - N/A   Clear
3:35 AM 61.9 °F - 54.9 °F 78% 30.13 in 10.0 mi South 3.5 mph - N/A   Clear
3:55 AM 61.9 °F - 54.7 °F 77% 30.13 in 10.0 mi Calm Calm - N/A   Clear
4:15 AM 59.4 °F - 54.1 °F 83% 30.14 in 10.0 mi SE 5.8 mph - N/A   Clear
4:35 AM 59.0 °F - 53.6 °F 82% 30.14 in 10.0 mi SE 3.5 mph - N/A   Clear
4:55 AM 57.9 °F - 53.2 °F 84% 30.14 in 10.0 mi Calm Calm - N/A   Clear
5:15 AM 57.4 °F - 52.7 °F 84% 30.15 in 10.0 mi Calm Calm - N/A   Clear
5:35 AM 57.6 °F - 52.7 °F 84% 30.15 in 10.0 mi Calm Calm - N/A   Clear
5:55 AM 58.6 °F - 53.4 °F 83% 30.15 in 10.0 mi Calm Calm - N/A   Clear
6:15 AM 60.4 °F - 55.8 °F 85% 30.15 in 10.0 mi SSW 3.5 mph - N/A   Clear
6:35 AM 63.5 °F - 58.1 °F 83% 30.16 in 10.0 mi Calm Calm - N/A   Clear
6:55 AM 65.8 °F - 58.6 °F 78% 30.16 in 10.0 mi Calm Calm - N/A   Clear
7:15 AM 67.5 °F - 58.1 °F 72% 30.16 in 10.0 mi Calm Calm - N/A   Clear
7:35 AM 68.7 °F - 57.4 °F 67% 30.17 in 10.0 mi Calm Calm - N/A   Clear
7:55 AM 69.8 °F - 58.1 °F 66% 30.17 in 10.0 mi Calm Calm - N/A   Clear
8:15 AM 71.2 °F - 59.5 °F 66% 30.17 in 10.0 mi ENE 3.5 mph - N/A   Clear
8:35 AM 72.0 °F - 61.0 °F 68% 30.18 in 10.0 mi Calm Calm - N/A   Clear
8:55 AM 73.4 °F - 60.8 °F 65% 30.18 in 10.0 mi Calm Calm - N/A   Clear
9:15 AM 73.9 °F - 59.7 °F 61% 30.18 in 10.0 mi Calm Calm - N/A   Clear
9:35 AM 74.8 °F - 60.3 °F 60% 30.17 in 10.0 mi NE 3.5 mph - N/A   Clear
9:55 AM 75.6 °F - 59.7 °F 58% 30.17 in 10.0 mi NE 4.6 mph - N/A   Clear
10:15 AM 76.8 °F - 56.8 °F 50% 30.17 in 10.0 mi NE 3.5 mph - N/A   Clear
10:35 AM 77.7 °F - 55.0 °F 45% 30.17 in 10.0 mi ENE 4.6 mph - N/A   Clear
10:55 AM 78.4 °F - 55.9 °F 46% 30.17 in 10.0 mi Calm Calm - N/A   Clear
11:15 AM 79.3 °F - 55.8 °F 44% 30.17 in 10.0 mi Calm Calm - N/A   Clear
11:35 AM 79.2 °F - 54.3 °F 42% 30.16 in 10.0 mi Calm Calm - N/A   Clear
11:55 AM 79.7 °F - 56.3 °F 44% 30.16 in 10.0 mi NNE 5.8 mph - N/A   Clear
12:15 PM 80.4 °F 80.7 °F 57.0 °F 45% 30.16 in 10.0 mi North 3.5 mph - N/A   Clear
12:35 PM 81.1 °F 81.2 °F 57.4 °F 44% 30.16 in 10.0 mi Calm Calm - N/A   Clear
12:55 PM 81.5 °F 81.6 °F 58.3 °F 45% 30.15 in 10.0 mi Calm Calm - N/A   Clear
1:15 PM 81.9 °F 81.8 °F 58.1 °F 44% 30.15 in 10.0 mi North 5.8 mph - N/A   Clear
1:35 PM 82.4 °F 82.0 °F 57.2 °F 42% 30.15 in 10.0 mi Calm Calm - N/A   Clear
1:55 PM 83.3 °F 83.1 °F 58.5 °F 43% 30.15 in 10.0 mi ENE 3.5 mph - N/A   Clear
2:15 PM 83.5 °F 83.1 °F 58.1 °F 42% 30.14 in 10.0 mi ENE 5.8 mph - N/A   Clear
2:35 PM 84.2 °F 84.0 °F 59.4 °F 43% 30.14 in 10.0 mi ENE 4.6 mph - N/A   Clear
2:55 PM 84.7 °F 84.4 °F 59.5 °F 42% 30.14 in 10.0 mi Calm Calm - N/A   Clear
3:15 PM 85.3 °F 84.4 °F 57.4 °F 39% 30.13 in 10.0 mi NE 3.5 mph - N/A   Clear
3:35 PM 85.6 °F 84.1 °F 55.0 °F 35% 30.13 in 10.0 mi ENE 4.6 mph - N/A   Clear
3:55 PM 86.0 °F 84.5 °F 55.6 °F 35% 30.12 in 10.0 mi NE 4.6 mph - N/A   Clear
4:15 PM 86.2 °F 85.2 °F 57.9 °F 38% 30.12 in 10.0 mi North 5.8 mph - N/A   Clear
4:35 PM 86.0 °F 85.0 °F 57.6 °F 38% 30.11 in 10.0 mi NNE 5.8 mph - N/A   Clear
4:55 PM 85.8 °F 85.0 °F 58.1 °F 39% 30.11 in 10.0 mi NE 5.8 mph - N/A   Clear
5:15 PM 86.0 °F 85.4 °F 59.0 °F 40% 30.11 in 10.0 mi NNE 5.8 mph - N/A   Clear
5:35 PM 85.6 °F 85.0 °F 58.8 °F 40% 30.11 in 10.0 mi North 4.6 mph - N/A   Clear
5:55 PM 85.3 °F 84.8 °F 59.0 °F 41% 30.10 in 10.0 mi North 4.6 mph - N/A   Clear
6:15 PM 84.6 °F 84.4 °F 60.1 °F 43% 30.10 in 10.0 mi North 4.6 mph - N/A   Clear
6:35 PM 83.8 °F 84.3 °F 61.9 °F 47% 30.10 in 10.0 mi North 4.6 mph - N/A   Clear
6:55 PM 82.9 °F 83.5 °F 61.3 °F 48% 30.10 in 10.0 mi North 3.5 mph - N/A   Clear
7:15 PM 81.9 °F 82.6 °F 61.7 °F 50% 30.09 in 10.0 mi NNW 3.5 mph - N/A   Clear
7:35 PM 80.4 °F 81.5 °F 62.1 °F 53% 30.09 in 10.0 mi NNW 3.5 mph - N/A   Clear
7:55 PM 79.2 °F - 60.6 °F 53% 30.09 in 10.0 mi Calm Calm - N/A   Clear
8:15 PM 78.3 °F - 59.7 °F 53% 30.10 in 10.0 mi Calm Calm - N/A   Clear
8:35 PM 77.0 °F - 57.7 °F 51% 30.10 in 10.0 mi Calm Calm - N/A   Clear
8:55 PM 72.1 °F - 59.0 °F 63% 30.11 in 10.0 mi South 5.8 mph - N/A   Clear
9:15 PM 70.9 °F - 59.0 °F 66% 30.11 in 10.0 mi Calm Calm - N/A   Clear
9:35 PM 68.4 °F - 58.6 °F 71% 30.11 in 10.0 mi South 3.5 mph - N/A   Clear
9:55 PM 66.2 °F - 57.9 °F 75% 30.11 in 10.0 mi SSE 4.6 mph - N/A   Clear
10:15 PM 66.2 °F - 57.0 °F 72% 30.11 in 10.0 mi SSE 3.5 mph - N/A   Clear
10:35 PM 66.2 °F - 56.7 °F 71% 30.11 in 10.0 mi Calm Calm - N/A   Clear
10:55 PM 66.7 °F - 56.3 °F 69% 30.11 in 10.0 mi South 3.5 mph - N/A   Clear
11:15 PM 66.2 °F - 55.9 °F 69% 30.11 in 10.0 mi Calm Calm - N/A   Clear
11:35 PM 65.3 °F - 55.8 °F 71% 30.11 in 10.0 mi Calm Calm - N/A   Clear
11:55 PM 64.6 °F - 55.4 °F 72% 30.11 in 10.0 mi Calm Calm - N/A   Clear